�������l�o���
Date,Time,MP-1(��Sv/h),MP-2(��Sv/h),MP-3(��Sv/h),MP-4(��Sv/h),MP-5(��Sv/h),MP-6(��Sv/h),MP-7(��Sv/h),MP-8(��Sv/h),����,����(m/s),���J
2021/03/03,00:00,0.627,0.909,0.582,1.141,0.801,0.368,0.653,0.612,�k��,12.7,��
2021/03/03,00:10,0.629,0.911,0.580,1.141,0.800,0.367,0.654,0.612,�k�k��,9.5,��
2021/03/03,00:20,0.627,0.911,0.580,1.141,0.802,0.367,0.655,0.611,�k�k��,13.3,��
2021/03/03,00:30,0.628,0.909,0.582,1.142,0.802,0.370,0.653,0.611,�k�k��,12.7,��
2021/03/03,00:40,0.627,0.911,0.581,1.142,0.802,0.369,0.652,0.613,�k�k��,13.3,��
2021/03/03,00:50,0.629,0.910,0.581,1.141,0.800,0.369,0.653,0.614,�k�k��,13.5,��
2021/03/03,01:00,0.628,0.910,0.580,1.145,0.801,0.366,0.653,0.612,�k�k��,9.1,��
2021/03/03,01:10,0.629,0.912,0.579,1.143,0.804,0.366,0.653,0.611,�k�k��,12.5,��
2021/03/03,01:20,0.628,0.913,0.581,1.143,0.803,0.368,0.653,0.612,�k�k��,10.5,��
2021/03/03,01:30,0.627,0.912,0.583,1.142,0.803,0.367,0.654,0.613,�k�k��,12.5,��
2021/03/03,01:40,0.628,0.911,0.581,1.144,0.804,0.367,0.653,0.615,�k�k��,11.7,��
2021/03/03,01:50,0.627,0.912,0.582,1.144,0.803,0.367,0.653,0.613,�k�k��,10.7,��
2021/03/03,02:00,0.628,0.913,0.581,1.146,0.803,0.368,0.654,0.613,�k�k��,10.2,��
2021/03/03,02:10,0.629,0.913,0.581,1.144,0.805,0.369,0.653,0.612,�k�k��,10.8,��
2021/03/03,02:20,0.628,0.912,0.581,1.145,0.804,0.366,0.655,0.612,�k,10.7,��
2021/03/03,02:30,0.626,0.911,0.581,1.145,0.804,0.368,0.653,0.612,�k�k��,10.6,��
2021/03/03,02:40,0.627,0.912,0.584,1.144,0.804,0.367,0.653,0.612,�k�k��,11.7,��
2021/03/03,02:50,0.627,0.911,0.582,1.144,0.802,0.367,0.653,0.612,�k�k��,11.9,��
2021/03/03,03:00,0.627,0.912,0.582,1.145,0.804,0.366,0.654,0.612,�k�k��,14.1,��
2021/03/03,03:10,0.627,0.910,0.580,1.147,0.802,0.366,0.653,0.613,�k�k��,11.9,��
2021/03/03,03:20,0.627,0.908,0.579,1.143,0.803,0.365,0.652,0.613,�k�k��,11.6,��
2021/03/03,03:30,0.627,0.910,0.580,1.148,0.805,0.365,0.655,0.613,�k�k��,10.5,��
2021/03/03,03:40,0.627,0.911,0.580,1.145,0.803,0.366,0.655,0.613,�k��,9.6,��
2021/03/03,03:50,0.627,0.912,0.580,1.147,0.804,0.366,0.652,0.612,�k�k��,10.8,��
2021/03/03,04:00,0.627,0.912,0.581,1.147,0.804,0.367,0.654,0.613,�k�k��,10.9,��
2021/03/03,04:10,0.627,0.911,0.579,1.146,0.804,0.366,0.653,0.612,�k�k��,12.7,��
2021/03/03,04:20,0.625,0.910,0.578,1.146,0.803,0.366,0.653,0.613,�k�k��,9.6,��
2021/03/03,04:30,0.627,0.911,0.582,1.145,0.803,0.367,0.655,0.612,�k�k��,10.2,��
2021/03/03,04:40,0.628,0.911,0.579,1.147,0.804,0.366,0.653,0.613,�k�k��,10.2,��
2021/03/03,04:50,0.628,0.913,0.580,1.146,0.803,0.368,0.653,0.613,�k�k��,9.0,��
2021/03/03,05:00,0.626,0.912,0.582,1.148,0.806,0.367,0.653,0.614,�k�k��,8.2,��
2021/03/03,05:10,0.628,0.914,0.580,1.147,0.806,0.368,0.652,0.612,�k�k��,8.6,��
2021/03/03,05:20,0.627,0.913,0.582,1.147,0.805,0.367,0.652,0.612,�k�k��,7.6,��
2021/03/03,05:30,0.628,0.913,0.584,1.148,0.805,0.367,0.652,0.613,�k�k��,7.8,��
2021/03/03,05:40,0.627,0.914,0.582,1.147,0.806,0.367,0.652,0.613,�k�k��,6.5,��
2021/03/03,05:50,0.629,0.915,0.583,1.147,0.805,0.367,0.653,0.612,�k�k��,4.0,��
2021/03/03,06:00,0.626,0.916,0.582,1.146,0.805,0.367,0.652,0.613,�k�k��,6.0,��
2021/03/03,06:10,0.627,0.917,0.582,1.146,0.807,0.367,0.654,0.613,�k�k��,5.7,��
2021/03/03,06:20,0.627,0.916,0.582,1.148,0.803,0.366,0.653,0.612,�k��,4.4,��
2021/03/03,06:30,0.627,0.914,0.582,1.147,0.805,0.366,0.652,0.612,�k��,4.1,��
2021/03/03,06:40,0.627,0.913,0.581,1.148,0.808,0.367,0.652,0.613,�k��,3.2,��
2021/03/03,06:50,0.629,0.915,0.582,1.146,0.806,0.367,0.652,0.614,�k�k��,3.6,��
2021/03/03,07:00,0.628,0.914,0.582,1.146,0.805,0.365,0.653,0.614,�k��,5.3,��
2021/03/03,07:10,0.628,0.916,0.582,1.148,0.805,0.367,0.653,0.612,�k��,5.2,��
2021/03/03,07:20,0.629,0.916,0.583,1.146,0.806,0.366,0.653,0.613,�k��,4.4,��
2021/03/03,07:30,0.628,0.914,0.582,1.146,0.806,0.367,0.653,0.612,�k��,4.2,��
2021/03/03,07:40,0.629,0.914,0.582,1.148,0.805,0.366,0.652,0.614,�k��,4.8,��
2021/03/03,07:50,0.631,0.915,0.582,1.148,0.806,0.367,0.654,0.614,�k��,5.6,��
2021/03/03,08:00,0.629,0.917,0.582,1.148,0.808,0.366,0.653,0.612,�k��,6.9,��
2021/03/03,08:10,0.630,0.917,0.584,1.148,0.807,0.366,0.652,0.614,�k��,6.1,��
2021/03/03,08:20,0.630,0.918,0.582,1.147,0.805,0.366,0.652,0.614,�k��,6.7,��
2021/03/03,08:30,0.630,0.915,0.585,1.147,0.805,0.367,0.654,0.614,�k��,9.2,��
2021/03/03,08:40,0.629,0.916,0.583,1.150,0.805,0.367,0.653,0.613,�k��,8.3,��
2021/03/03,08:50,0.632,0.916,0.584,1.148,0.807,0.367,0.654,0.614,�k��,10.5,��
2021/03/03,09:00,0.630,0.919,0.585,1.149,0.809,0.366,0.654,0.612,�k��,8.2,��
2021/03/03,09:10,0.629,0.917,0.583,1.150,0.808,0.368,0.653,0.613,�k��,8.4,��
2021/03/03,09:20,0.630,0.919,0.583,1.149,0.808,0.366,0.654,0.613,�k��,7.7,��
2021/03/03,09:30,0.630,0.918,0.583,1.150,0.806,0.367,0.653,0.613,�k��,6.9,��
2021/03/03,09:40,0.631,0.916,0.584,1.150,0.807,0.367,0.653,0.614,�k��,9.7,��
2021/03/03,09:50,0.631,0.918,0.585,1.150,0.807,0.367,0.653,0.614,�k��,9.4,��
2021/03/03,10:00,0.629,0.915,0.586,1.152,0.808,0.368,0.654,0.615,�k��,8.1,��
2021/03/03,10:10,0.631,0.916,0.585,1.149,0.808,0.368,0.652,0.614,�k��,10.2,��
2021/03/03,10:20,0.631,0.920,0.584,1.150,0.809,0.367,0.652,0.613,�k�k��,8.5,��
2021/03/03,10:30,0.632,0.919,0.585,1.151,0.811,0.366,0.654,0.614,�k�k��,9.8,��
2021/03/03,10:40,0.630,0.920,0.585,1.152,0.811,0.367,0.654,0.614,�k��,6.2,��
2021/03/03,10:50,0.630,0.918,0.585,1.150,0.811,0.366,0.653,0.613,�k��,8.3,��
2021/03/03,11:00,0.632,0.919,0.585,1.152,0.811,0.364,0.653,0.614,�k��,6.1,��
2021/03/03,11:10,0.632,0.922,0.585,1.153,0.810,0.365,0.652,0.613,�k�k��,6.7,��
2021/03/03,11:20,0.632,0.921,0.586,1.154,0.813,0.366,0.653,0.613,�k��,8.7,��
2021/03/03,11:30,0.632,0.921,0.586,1.152,0.811,0.369,0.653,0.614,�k��,4.9,��
2021/03/03,11:40,0.631,0.919,0.587,1.152,0.811,0.368,0.652,0.613,�k�k��,8.1,��
2021/03/03,11:50,0.632,0.922,0.586,1.154,0.813,0.369,0.653,0.615,�k�k��,7.4,��
2021/03/03,12:00,0.632,0.921,0.587,1.154,0.811,0.369,0.653,0.616,�k�k��,6.6,��
2021/03/03,12:10,0.634,0.924,0.587,1.155,0.814,0.368,0.652,0.614,�k��,5.9,��
2021/03/03,12:20,0.633,0.924,0.587,1.154,0.814,0.368,0.655,0.615,�k��,5.1,��
2021/03/03,12:30,0.635,0.925,0.588,1.152,0.814,0.368,0.653,0.614,�k�k��,5.8,��
2021/03/03,12:40,0.632,0.924,0.588,1.154,0.815,0.367,0.653,0.614,�k,6.7,��
2021/03/03,12:50,0.632,0.924,0.589,1.156,0.813,0.369,0.652,0.617,�k,8.6,��
2021/03/03,13:00,0.632,0.922,0.587,1.157,0.815,0.369,0.652,0.614,�k�k��,10.0,��
2021/03/03,13:10,0.633,0.922,0.589,1.157,0.815,0.368,0.653,0.616,�k�k��,9.1,��
2021/03/03,13:20,0.631,0.925,0.587,1.154,0.813,0.368,0.654,0.615,�k�k��,8.6,��
2021/03/03,13:30,0.634,0.923,0.589,1.155,0.814,0.369,0.653,0.615,�k�k��,9.0,��
2021/03/03,13:40,0.633,0.922,0.588,1.156,0.816,0.367,0.652,0.614,�k�k��,10.5,��
2021/03/03,13:50,0.634,0.921,0.589,1.154,0.814,0.370,0.653,0.614,�k�k��,11.0,��
2021/03/03,14:00,0.633,0.923,0.587,1.159,0.815,0.369,0.652,0.613,�k�k��,9.7,��
2021/03/03,14:10,0.635,0.923,0.590,1.156,0.816,0.370,0.653,0.613,�k�k��,11.1,��
2021/03/03,14:20,0.635,0.923,0.588,1.157,0.816,0.369,0.653,0.612,�k�k��,9.9,��
2021/03/03,14:30,0.635,0.926,0.588,1.156,0.816,0.370,0.653,0.613,�k�k��,9.2,��
2021/03/03,14:40,0.636,0.926,0.589,1.154,0.817,0.369,0.654,0.613,�k�k��,8.2,��
2021/03/03,14:50,0.635,0.925,0.591,1.153,0.817,0.369,0.652,0.612,�k�k��,10.7,��
2021/03/03,15:00,0.635,0.926,0.589,1.157,0.818,0.368,0.654,0.612,�k�k��,9.3,��
2021/03/03,15:10,0.634,0.926,0.588,1.156,0.816,0.365,0.653,0.613,�k�k��,10.0,��
2021/03/03,15:20,0.636,0.928,0.590,1.157,0.817,0.365,0.653,0.613,�k�k��,9.9,��
2021/03/03,15:30,0.634,0.927,0.591,1.157,0.819,0.367,0.654,0.613,�k�k��,10.3,��
2021/03/03,15:40,0.637,0.929,0.590,1.156,0.816,0.368,0.652,0.616,�k�k��,9.3,��
2021/03/03,15:50,0.635,0.927,0.590,1.158,0.816,0.368,0.654,0.617,�k�k��,9.6,��
2021/03/03,16:00,0.635,0.929,0.591,1.158,0.817,0.370,0.654,0.615,�k�k��,9.3,��
2021/03/03,16:10,0.636,0.929,0.590,1.156,0.817,0.368,0.657,0.615,�k�k��,8.5,��
2021/03/03,16:20,0.636,0.928,0.588,1.158,0.817,0.369,0.656,0.617,�k,9.6,��
2021/03/03,16:30,0.635,0.926,0.590,1.156,0.817,0.369,0.656,0.616,�k,9.8,��
2021/03/03,16:40,0.634,0.925,0.591,1.159,0.818,0.368,0.657,0.614,�k,10.5,��
2021/03/03,16:50,0.634,0.927,0.589,1.158,0.819,0.369,0.656,0.616,�k,9.0,��
2021/03/03,17:00,0.637,0.926,0.588,1.156,0.820,0.369,0.654,0.616,�k,8.8,��
2021/03/03,17:10,0.636,0.924,0.589,1.156,0.820,0.369,0.655,0.615,�k,8.1,��
2021/03/03,17:20,0.634,0.924,0.589,1.159,0.819,0.370,0.655,0.612,�k,8.4,��
2021/03/03,17:30,0.634,0.925,0.588,1.156,0.819,0.369,0.656,0.616,�k,8.4,��
2021/03/03,17:40,0.635,0.925,0.587,1.157,0.818,0.367,0.656,0.615,�k,8.3,��
2021/03/03,17:50,0.635,0.927,0.588,1.160,0.819,0.370,0.653,0.614,�k,8.2,��
2021/03/03,18:00,0.635,0.925,0.589,1.159,0.818,0.368,0.654,0.614,�k,8.7,��
2021/03/03,18:10,0.633,0.927,0.587,1.158,0.818,0.368,0.655,0.614,�k,8.0,��
2021/03/03,18:20,0.634,0.928,0.589,1.158,0.818,0.370,0.655,0.616,�k,7.7,��
2021/03/03,18:30,0.632,0.927,0.589,1.159,0.817,0.368,0.654,0.614,�k,7.0,��
2021/03/03,18:40,0.634,0.925,0.589,1.156,0.819,0.368,0.657,0.614,�k,6.5,��
2021/03/03,18:50,0.634,0.926,0.588,1.158,0.818,0.369,0.654,0.614,�k,5.7,��
2021/03/03,19:00,0.633,0.926,0.589,1.158,0.818,0.368,0.655,0.616,�k�k��,5.9,��
2021/03/03,19:10,0.634,0.927,0.586,1.158,0.818,0.368,0.655,0.614,�k�k��,5.9,��
2021/03/03,19:20,0.634,0.925,0.587,1.159,0.821,0.369,0.654,0.614,�k�k��,4.6,��
2021/03/03,19:30,0.634,0.927,0.588,1.158,0.818,0.368,0.655,0.615,�k�k��,4.9,��
2021/03/03,19:40,0.634,0.926,0.590,1.159,0.818,0.367,0.653,0.616,�k�k��,5.5,��
2021/03/03,19:50,0.634,0.926,0.586,1.158,0.820,0.369,0.654,0.615,�k�k��,6.0,��
2021/03/03,20:00,0.634,0.925,0.587,1.159,0.818,0.368,0.654,0.615,�k�k��,5.7,��
2021/03/03,20:10,0.634,0.926,0.589,1.157,0.818,0.367,0.654,0.613,�k�k��,4.8,��
2021/03/03,20:20,0.634,0.927,0.587,1.158,0.818,0.368,0.654,0.615,�k�k��,5.2,��
2021/03/03,20:30,0.634,0.926,0.587,1.159,0.817,0.368,0.654,0.614,�k�k��,5.9,��
2021/03/03,20:40,0.632,0.929,0.588,1.158,0.818,0.369,0.653,0.614,�k�k��,5.4,��
2021/03/03,20:50,0.633,0.927,0.588,1.157,0.819,0.368,0.654,0.614,�k�k��,6.3,��
2021/03/03,21:00,0.634,0.925,0.587,1.156,0.819,0.367,0.654,0.614,�k�k��,6.4,��
2021/03/03,21:10,0.634,0.927,0.589,1.159,0.818,0.366,0.655,0.614,�k�k��,6.8,��
2021/03/03,21:20,0.633,0.928,0.588,1.159,0.817,0.367,0.654,0.615,�k�k��,6.6,��
2021/03/03,21:30,0.634,0.925,0.588,1.159,0.820,0.368,0.654,0.614,�k�k��,5.8,��
2021/03/03,21:40,0.633,0.925,0.588,1.157,0.818,0.368,0.655,0.615,�k�k��,5.8,��
2021/03/03,21:50,0.633,0.926,0.587,1.157,0.821,0.367,0.654,0.613,�k�k��,5.7,��
2021/03/03,22:00,0.632,0.928,0.589,1.156,0.820,0.368,0.655,0.614,�k��,5.8,��
2021/03/03,22:10,0.634,0.928,0.588,1.158,0.818,0.369,0.656,0.615,�k�k��,5.8,��
2021/03/03,22:20,0.635,0.927,0.587,1.159,0.819,0.368,0.654,0.614,�k�k��,6.0,��
2021/03/03,22:30,0.634,0.927,0.588,1.156,0.817,0.368,0.653,0.615,�k�k��,5.3,��
2021/03/03,22:40,0.635,0.927,0.588,1.160,0.819,0.369,0.653,0.615,�k�k��,5.8,��
2021/03/03,22:50,0.634,0.924,0.588,1.160,0.818,0.366,0.653,0.613,�k�k��,5.9,��
2021/03/03,23:00,0.632,0.926,0.587,1.157,0.819,0.367,0.652,0.614,�k��,5.9,��
2021/03/03,23:10,0.633,0.926,0.589,1.157,0.819,0.368,0.655,0.615,�k��,5.2,��
2021/03/03,23:20,0.634,0.925,0.587,1.157,0.817,0.367,0.653,0.614,�k�k��,5.0,��
2021/03/03,23:30,0.634,0.927,0.586,1.159,0.818,0.368,0.654,0.615,�k�k��,5.1,��
2021/03/03,23:40,0.633,0.927,0.587,1.159,0.818,0.369,0.653,0.615,�k�k��,4.7,��
2021/03/03,23:50,0.634,0.925,0.589,1.158,0.820,0.368,0.654,0.615,�k��,5.0,��
